Weather History for KSGS - September, 2012

Change the Weather History Date:

Sunday, September 16, 2012

  Actual Average (KMSP) Record (KMSP)
Temperature  
Mean Temperature 68 °F 62 °F  
Max Temperature 78 °F 72 °F 94 °F (1955)
Min Temperature 59 °F 52 °F 38 °F (1873)
Degree Days  
Heating Degree Days 0 5  
Month to date heating degree days 49  
Since 1 July heating degree days 68  
Cooling Degree Days 4 2  
Month to date cooling degree days 50  
Year to date cooling degree days 731  
Growing Degree Days 18 (Base 50)    
Moisture  
Dew Point 49 °F    
Average Humidity 48    
Maximum Humidity 70    
Minimum Humidity 36    
Precipitation  
Precipitation 0.00 in 0.10 in 1.97 in (1997)
Month to date precipitation 1.69  
Year to date precipitation 23.86  
Snow  
Snow 0.00 in 0.00 in 0.00 in ()
Month to date snowfall 0.0  
Since 1 July snowfall 0.0  
Since 1 September snowfall 0.0  
Snow Depth -    
Sea Level Pressure  
Sea Level Pressure 29.92 in    
Wind  
Wind Speed 7 mph (WSW)    
Max Wind Speed 15 mph    
Max Gust Speed 21 mph    
Visibility 10 miles    
Events      
T = Trace of Precipitation, MM = Missing Value Source: NWS Daily Summary

Daily Weather History Graph

Daily Weather History Graph

Search for Another Location

Airport or City:

Trip Planner

Search our weather history database for the weather conditions in past years. The results will help you decide how hot, cold, wet, or windy it might be!

Date:

Astronomy

Sep. 16, 2012 Rise Set
Actual Time 6:52 AM CDT 7:20 PM CDT
Civil Twilight 6:23 AM CDT 7:49 PM CDT
Nautical Twilight 5:48 AM CDT 8:23 PM CDT
Astronomical Twilight 5:12 AM CDT 8:59 PM CDT
Moon 7:37 AM CDT (9/16) 7:19 PM CDT (9/16)
Length of Visible Light 13h 26m
Length of Day
12h 27m
New Moon, 0% of the Moon is Illuminated
Sep 16
New Moon
Sep 22
First Quarter
Sep 29
Full
Oct 8
Last Quarter
Oct 15
New

Hourly Weather History & Observations

Time (CDT) Temp. Dew Point Humidity Pressure Visibility Wind Dir Wind Speed Gust Speed Precip Events Conditions
12:12 AM 66.4 °F 44.6 °F 45% 29.97 in 10.0 mi South 4.6 mph - N/A   Clear
12:32 AM 66.2 °F 45.0 °F 46% 29.97 in 10.0 mi South 6.9 mph - N/A   Clear
12:52 AM 65.8 °F 45.0 °F 47% 29.97 in 10.0 mi South 5.8 mph - N/A   Clear
1:12 AM 65.8 °F 45.0 °F 47% 29.97 in 10.0 mi SSW 6.9 mph - N/A   Clear
1:32 AM 66.0 °F 45.0 °F 47% 29.97 in 10.0 mi South 4.6 mph - N/A   Clear
1:52 AM 66.2 °F 45.1 °F 47% 29.97 in 10.0 mi SSW 5.8 mph - N/A   Clear
2:12 AM 65.5 °F 45.3 °F 48% 29.97 in 10.0 mi SSE 3.5 mph - N/A   Clear
2:32 AM 63.9 °F 45.5 °F 51% 29.96 in 10.0 mi South 4.6 mph - N/A   Clear
2:52 AM 63.9 °F 45.9 °F 52% 29.96 in 10.0 mi SSW 8.1 mph - N/A   Clear
3:12 AM 65.5 °F 45.7 °F 49% 29.96 in 10.0 mi SSW 9.2 mph - N/A   Clear
3:32 AM 65.1 °F 46.0 °F 50% 29.95 in 10.0 mi SSW 9.2 mph - N/A   Clear
3:52 AM 65.5 °F 46.8 °F 51% 29.95 in 10.0 mi SW 11.5 mph - N/A   Clear
4:12 AM 65.7 °F 47.7 °F 52% 29.95 in 10.0 mi SSW 9.2 mph - N/A   Clear
4:32 AM 64.9 °F 48.2 °F 55% 29.95 in 10.0 mi SSW 6.9 mph - N/A   Clear
4:52 AM 64.6 °F 48.7 °F 56% 29.95 in 10.0 mi SSW 6.9 mph - N/A   Clear
5:12 AM 64.4 °F 49.1 °F 58% 29.94 in 10.0 mi SSW 6.9 mph - N/A   Clear
5:32 AM 63.9 °F 49.5 °F 59% 29.94 in 10.0 mi South 6.9 mph - N/A   Clear
5:52 AM 63.1 °F 49.5 °F 61% 29.94 in 10.0 mi South 6.9 mph - N/A   Clear
6:12 AM 62.4 °F 49.6 °F 63% 29.94 in 10.0 mi South 5.8 mph - N/A   Clear
6:32 AM 61.0 °F 49.3 °F 65% 29.93 in 10.0 mi SSE 4.6 mph - N/A   Clear
7:12 AM 59.9 °F 49.5 °F 68% 29.93 in 10.0 mi SSE 3.5 mph - N/A   Clear
7:32 AM 59.9 °F 50.2 °F 70% 29.93 in 10.0 mi Calm Calm - N/A   Clear
7:52 AM 60.8 °F 50.9 °F 70% 29.93 in 10.0 mi South 4.6 mph - N/A   Clear
8:12 AM 61.7 °F 51.4 °F 69% 29.92 in 10.0 mi South 4.6 mph - N/A   Clear
8:32 AM 63.1 °F 52.0 °F 67% 29.92 in 10.0 mi SSE 5.8 mph - N/A   Clear
8:52 AM 64.8 °F 52.9 °F 65% 29.92 in 10.0 mi SSW 5.8 mph - N/A   Clear
9:12 AM 66.6 °F 52.9 °F 61% 29.92 in 10.0 mi SSW 9.2 mph - N/A   Clear
9:32 AM 68.0 °F 52.9 °F 58% 29.92 in 10.0 mi SW 12.7 mph 18.4 mph N/A   Clear
9:52 AM 68.7 °F 52.9 °F 57% 29.92 in 10.0 mi SW 10.4 mph - N/A   Clear
10:12 AM 69.4 °F 52.7 °F 55% 29.92 in 10.0 mi WSW 10.4 mph - N/A   Clear
10:32 AM 70.2 °F 52.2 °F 53% 29.92 in 10.0 mi WSW 9.2 mph - N/A   Clear
10:52 AM 70.3 °F 52.0 °F 52% 29.93 in 10.0 mi West 10.4 mph 16.1 mph N/A   Clear
11:12 AM 71.1 °F 52.2 °F 51% 29.92 in 10.0 mi SW 9.2 mph - N/A   Clear
11:32 AM 71.2 °F 52.0 °F 51% 29.92 in 10.0 mi SW 6.9 mph - N/A   Clear
11:52 AM 72.9 °F 52.0 °F 48% 29.91 in 10.0 mi SW 10.4 mph - N/A   Clear
12:12 PM 73.4 °F 52.2 °F 47% 29.91 in 10.0 mi SW 11.5 mph - N/A   Clear
12:32 PM 73.8 °F 52.3 °F 47% 29.91 in 10.0 mi SSW 10.4 mph - N/A   Clear
12:52 PM 74.3 °F 51.8 °F 45% 29.90 in 10.0 mi SSW 6.9 mph - N/A   Clear
1:12 PM 74.8 °F 52.2 °F 45% 29.90 in 10.0 mi West 5.8 mph 9.2 mph N/A   Clear
1:32 PM 75.9 °F 51.8 °F 43% 29.90 in 10.0 mi SW 6.9 mph - N/A   Clear
1:52 PM 76.3 °F 51.8 °F 42% 29.89 in 10.0 mi South 8.1 mph - N/A   Clear
2:12 PM 76.5 °F 51.6 °F 42% 29.88 in 10.0 mi SSW 9.2 mph - N/A   Clear
2:32 PM 77.4 °F 51.3 °F 40% 29.88 in 10.0 mi SW 9.2 mph - N/A   Clear
2:52 PM 77.9 °F 51.6 °F 40% 29.87 in 10.0 mi SW 8.1 mph - N/A   Clear
3:12 PM 78.1 °F 51.8 °F 40% 29.88 in 10.0 mi SW 5.8 mph - N/A   Clear
3:32 PM 78.6 °F 51.1 °F 38% 29.88 in 10.0 mi WNW 10.4 mph - N/A   Clear
3:52 PM 78.3 °F 50.7 °F 38% 29.87 in 10.0 mi WSW 6.9 mph - N/A   Clear
4:12 PM 78.3 °F 49.8 °F 37% 29.87 in 10.0 mi WNW 6.9 mph - N/A   Clear
4:32 PM 78.1 °F 50.2 °F 38% 29.87 in 10.0 mi West 4.6 mph - N/A   Clear
4:52 PM 78.4 °F 50.2 °F 37% 29.86 in 10.0 mi WNW 4.6 mph - N/A   Clear
5:12 PM 78.6 °F 50.4 °F 37% 29.86 in 10.0 mi WNW 4.6 mph - N/A   Clear
5:32 PM 78.1 °F 50.2 °F 38% 29.87 in 10.0 mi WNW 5.8 mph - N/A   Clear
5:52 PM 77.7 °F 49.5 °F 37% 29.87 in 10.0 mi NW 5.8 mph - N/A   Clear
6:12 PM 77.2 °F 49.1 °F 37% 29.87 in 10.0 mi NW 6.9 mph - N/A   Clear
6:32 PM 76.3 °F 50.0 °F 40% 29.87 in 10.0 mi NNW 3.5 mph - N/A   Clear
6:52 PM 75.4 °F 50.4 °F 41% 29.87 in 10.0 mi North 3.5 mph - N/A   Clear
7:12 PM 74.5 °F 50.9 °F 43% 29.88 in 10.0 mi NNW 3.5 mph - N/A   Clear
7:32 PM 74.1 °F 51.6 °F 45% 29.88 in 10.0 mi North 3.5 mph - N/A   Clear
7:52 PM 73.0 °F 51.8 °F 47% 29.88 in 10.0 mi NNW 4.6 mph - N/A   Clear
8:12 PM 72.7 °F 52.5 °F 49% 29.89 in 10.0 mi North 9.2 mph - N/A   Clear
8:32 PM 72.1 °F 50.0 °F 46% 29.90 in 10.0 mi North 11.5 mph - N/A   Clear
8:52 PM 71.8 °F 44.8 °F 38% 29.90 in 10.0 mi North 9.2 mph - N/A   Clear
9:12 PM 71.2 °F 43.2 °F 36% 29.91 in 10.0 mi North 5.8 mph - N/A   Clear
9:32 PM 70.2 °F 44.6 °F 40% 29.92 in 10.0 mi North 8.1 mph - N/A   Clear
9:52 PM 69.8 °F 43.9 °F 39% 29.92 in 10.0 mi North 8.1 mph - N/A   Clear
10:12 PM 69.1 °F 43.7 °F 40% 29.93 in 10.0 mi North 12.7 mph - N/A   Clear
10:32 PM 68.9 °F 43.0 °F 39% 29.94 in 10.0 mi North 10.4 mph 18.4 mph N/A   Clear
10:52 PM 68.0 °F 40.8 °F 37% 29.94 in 10.0 mi North 15.0 mph 20.7 mph N/A   Clear
11:12 PM 66.6 °F 39.9 °F 38% 29.94 in 10.0 mi North 10.4 mph 16.1 mph N/A   Clear
11:32 PM 65.8 °F 39.7 °F 38% 29.94 in 10.0 mi North 11.5 mph 17.3 mph N/A   Clear
11:52 PM 65.1 °F 40.5 °F 40% 29.94 in 10.0 mi North 9.2 mph - N/A   Mostly Cloudy